• In Hungary
  • List of Countries
  • For 7 days
  • Water Temperature
  • Satellite Maps
  • Weather Map
  • News
  • Weather Widgets
  • user-avatar
    Login

    Hourly Weather San Marcos de Colón

    Today, 18 October, Wednesday

    Time Temperature Precipitation Wind Pressure Humidity
    00:00 +20°C° 0 mm 2 mps 678 mmHg 88%
    01:00 +20°C° 0 mm 2 mps 678 mmHg 88%
    02:00 +20°C° 0 mm 2 mps 677 mmHg 89%
    03:00 +20°C° 0 mm 2 mps 677 mmHg 89%
    04:00 +20°C° 0 mm 2 mps 677 mmHg 90%
    05:00 +20°C° 0 mm 2 mps 678 mmHg 90%
    06:00 +21°C° 0 mm 1 mps 678 mmHg 91%
    07:00 +23°C° 0 mm 2 mps 679 mmHg 83%
    08:00 +25°C° 0 mm 2 mps 679 mmHg 75%
    09:00 +27°C° 0 mm 3 mps 680 mmHg 67%
    10:00 +28°C° 0 mm 3 mps 680 mmHg 63%
    11:00 +29°C° 0 mm 3 mps 679 mmHg 59%
    12:00 +30°C° 0 mm 3 mps 679 mmHg 54%
    13:00 +30°C° 0.2 mm 3 mps 679 mmHg 56%
    14:00 +30°C° 0.2 mm 3 mps 678 mmHg 58%
    15:00 +29°C° 0.2 mm 3 mps 678 mmHg 59%
    16:00 +28°C° 0.2 mm 2 mps 678 mmHg 66%
    17:00 +26°C° 0.2 mm 2 mps 677 mmHg 73%
    18:00 +24°C° 0.2 mm 2 mps 677 mmHg 81%
    19:00 +23°C° 0 mm 2 mps 678 mmHg 82%
    20:00 +23°C° 0 mm 2 mps 678 mmHg 84%
    21:00 +21°C° 0 mm 2 mps 679 mmHg 86%
    22:00 +21°C° 0 mm 2 mps 678 mmHg 87%
    23:00 +21°C° 0 mm 2 mps 678 mmHg 87%

    Tomorrow, 19 October, Thursday

    Time Temperature Precipitation Wind Pressure Humidity
    00:00 +20°C° 0 mm 2 mps 678 mmHg 88%
    01:00 +20°C° 0 mm 2 mps 678 mmHg 88%
    02:00 +20°C° 0 mm 2 mps 677 mmHg 88%
    03:00 +20°C° 0 mm 2 mps 677 mmHg 88%
    04:00 +20°C° 0 mm 2 mps 677 mmHg 88%
    05:00 +20°C° 0 mm 2 mps 677 mmHg 88%
    06:00 +20°C° 0 mm 2 mps 677 mmHg 89%
    07:00 +23°C° 0 mm 2 mps 678 mmHg 81%
    08:00 +25°C° 0 mm 2 mps 679 mmHg 74%
    09:00 +27°C° 0 mm 3 mps 680 mmHg 67%
    10:00 +28°C° 0 mm 3 mps 679 mmHg 63%
    11:00 +29°C° 0 mm 3 mps 679 mmHg 59%
    12:00 +30°C° 0 mm 3 mps 679 mmHg 55%
    13:00 +30°C° 0.4 mm 3 mps 678 mmHg 57%
    14:00 +29°C° 0.4 mm 2 mps 678 mmHg 58%
    15:00 +29°C° 0.4 mm 2 mps 677 mmHg 60%
    16:00 +27°C° 0.7 mm 2 mps 677 mmHg 68%
    17:00 +25°C° 0.7 mm 2 mps 677 mmHg 75%
    18:00 +23°C° 0.7 mm 1 mps 677 mmHg 83%
    19:00 +23°C° 0.1 mm 1 mps 677 mmHg 85%
    20:00 +21°C° 0.1 mm 2 mps 678 mmHg 86%
    21:00 +21°C° 0.1 mm 2 mps 678 mmHg 87%
    22:00 +20°C° 0 mm 2 mps 678 mmHg 88%
    23:00 +20°C° 0 mm 2 mps 678 mmHg 89%

    Day after tomorrow, 20 October, Friday

    Time Temperature Precipitation Wind Pressure Humidity
    00:00 +20°C° 0 mm 2 mps 678 mmHg 89%
    01:00 +20°C° 0 mm 2 mps 677 mmHg 90%
    02:00 +19°C° 0 mm 2 mps 677 mmHg 90%
    03:00 +19°C° 0 mm 2 mps 677 mmHg 90%
    04:00 +19°C° 0 mm 2 mps 677 mmHg 90%
    05:00 +19°C° 0 mm 2 mps 677 mmHg 90%
    06:00 +19°C° 0 mm 2 mps 677 mmHg 90%
    07:00 +21°C° 0 mm 2 mps 678 mmHg 82%
    08:00 +24°C° 0 mm 2 mps 679 mmHg 75%
    09:00 +26°C° 0 mm 2 mps 680 mmHg 68%
    10:00 +27°C° 0 mm 2 mps 679 mmHg 64%
    11:00 +28°C° 0 mm 2 mps 679 mmHg 60%
    12:00 +29°C° 0 mm 2 mps 679 mmHg 55%
    13:00 +29°C° 0.1 mm 2 mps 678 mmHg 57%
    14:00 +29°C° 0.1 mm 2 mps 677 mmHg 58%
    15:00 +29°C° 0.1 mm 2 mps 677 mmHg 59%
    16:00 +27°C° 0.5 mm 1 mps 677 mmHg 67%
    17:00 +25°C° 0.5 mm 1 mps 677 mmHg 74%
    18:00 +23°C° 0.5 mm 1 mps 676 mmHg 82%
    19:00 +23°C° 0.5 mm 1 mps 677 mmHg 84%
    20:00 +22°C° 0.5 mm 1 mps 678 mmHg 86%
    21:00 +22°C° 0.5 mm 1 mps 678 mmHg 88%
    22:00 +21°C° 0.1 mm 1 mps 678 mmHg 89%
    23:00 +21°C° 0.1 mm 1 mps 678 mmHg 89%

    21 October, Saturday

    Time Temperature Precipitation Wind Pressure Humidity
    00:00 +21°C° 0.1 mm 1 mps 677 mmHg 90%
    01:00 +21°C° 0 mm 1 mps 677 mmHg 90%
    02:00 +21°C° 0 mm 1 mps 677 mmHg 90%
    03:00 +21°C° 0 mm 1 mps 676 mmHg 90%
    04:00 +21°C° 0 mm 1 mps 676 mmHg 90%
    05:00 +21°C° 0 mm 1 mps 677 mmHg 90%
    06:00 +21°C° 0 mm 1 mps 677 mmHg 90%
    07:00 +21°C° 0 mm 2 mps 678 mmHg 83%
    08:00 +24°C° 0 mm 2 mps 679 mmHg 75%
    09:00 +26°C° 0 mm 2 mps 680 mmHg 68%
    10:00 +27°C° 0.2 mm 2 mps 679 mmHg 66%
    11:00 +28°C° 0.2 mm 3 mps 679 mmHg 63%
    12:00 +29°C° 0.2 mm 3 mps 678 mmHg 60%
    13:00 +28°C° 0.4 mm 2 mps 678 mmHg 63%
    14:00 +27°C° 0.4 mm 2 mps 677 mmHg 66%
    15:00 +27°C° 0.4 mm 2 mps 677 mmHg 69%
    16:00 +25°C° 0.1 mm 2 mps 677 mmHg 74%
    17:00 +24°C° 0.1 mm 2 mps 677 mmHg 79%
    18:00 +22°C° 0.1 mm 1 mps 677 mmHg 85%
    19:00 +22°C° 0 mm 1 mps 677 mmHg 86%
    20:00 +22°C° 0 mm 1 mps 678 mmHg 88%
    21:00 +21°C° 0 mm 1 mps 678 mmHg 89%
    22:00 +21°C° 0 mm 1 mps 678 mmHg 89%
    23:00 +21°C° 0 mm 1 mps 678 mmHg 90%

    22 October, Sunday

    Time Temperature Precipitation Wind Pressure Humidity
    00:00 +21°C° 0 mm 1 mps 678 mmHg 90%
    01:00 +21°C° 0.1 mm 1 mps 677 mmHg 90%
    02:00 +21°C° 0.1 mm 1 mps 677 mmHg 90%
    03:00 +21°C° 0.1 mm 1 mps 677 mmHg 90%
    04:00 +21°C° 0 mm 1 mps 677 mmHg 90%
    05:00 +21°C° 0 mm 1 mps 677 mmHg 90%
    06:00 +20°C° 0 mm 1 mps 678 mmHg 90%
    07:00 +22°C° 0 mm 1 mps 678 mmHg 84%
    08:00 +24°C° 0 mm 2 mps 679 mmHg 77%
    09:00 +26°C° 0 mm 2 mps 680 mmHg 71%
    10:00 +27°C° 0.1 mm 2 mps 679 mmHg 68%
    11:00 +27°C° 0.1 mm 2 mps 679 mmHg 66%
    12:00 +28°C° 0.1 mm 2 mps 679 mmHg 64%
    13:00 +27°C° 0.4 mm 2 mps 678 mmHg 67%
    14:00 +27°C° 0.4 mm 2 mps 678 mmHg 70%
    15:00 +26°C° 0.4 mm 2 mps 677 mmHg 73%
    16:00 +25°C° 0.1 mm 2 mps 677 mmHg 77%
    17:00 +24°C° 0.1 mm 2 mps 677 mmHg 82%
    18:00 +22°C° 0.1 mm 1 mps 678 mmHg 86%
    19:00 +21°C° 0 mm 2 mps 678 mmHg 87%
    20:00 +21°C° 0 mm 2 mps 678 mmHg 88%
    21:00 +20°C° 0 mm 2 mps 679 mmHg 88%
    22:00 +20°C° 0.1 mm 2 mps 679 mmHg 89%
    23:00 +20°C° 0.1 mm 2 mps 678 mmHg 89%

    23 October, Monday

    Time Temperature Precipitation Wind Pressure Humidity
    00:00 +20°C° 0.1 mm 2 mps 678 mmHg 90%
    01:00 +20°C° 0 mm 2 mps 678 mmHg 90%
    02:00 +20°C° 0 mm 2 mps 677 mmHg 90%
    03:00 +20°C° 0 mm 2 mps 677 mmHg 90%
    04:00 +20°C° 0 mm 2 mps 677 mmHg 89%
    05:00 +20°C° 0 mm 2 mps 677 mmHg 89%
    06:00 +20°C° 0 mm 2 mps 678 mmHg 89%
    07:00 +21°C° 0 mm 2 mps 678 mmHg 82%
    08:00 +24°C° 0 mm 2 mps 679 mmHg 75%
    09:00 +26°C° 0 mm 3 mps 680 mmHg 69%
    10:00 +27°C° 0 mm 3 mps 679 mmHg 65%
    11:00 +28°C° 0 mm 3 mps 679 mmHg 61%
    12:00 +28°C° 0 mm 3 mps 679 mmHg 58%
    13:00 +28°C° 0 mm 3 mps 678 mmHg 59%
    14:00 +28°C° 0 mm 3 mps 677 mmHg 60%
    15:00 +28°C° 0 mm 3 mps 677 mmHg 61%
    16:00 +26°C° 0.1 mm 2 mps 677 mmHg 68%
    17:00 +25°C° 0.1 mm 2 mps 677 mmHg 75%
    18:00 +23°C° 0.1 mm 1 mps 677 mmHg 82%
    19:00 +23°C° 0.1 mm 1 mps 677 mmHg 84%
    20:00 +22°C° 0.1 mm 1 mps 678 mmHg 86%
    21:00 +22°C° 0.1 mm 1 mps 678 mmHg 88%
    22:00 +21°C° 0 mm 1 mps 678 mmHg 88%
    23:00 +21°C° 0 mm 1 mps 677 mmHg 89%
    Show more